Cordova, AK

11:18 AM AKST on November 17, 2017 (GMT -0900)
Cordova-Smith

Weather History for PACV - February, 2013

Change the Weather History Date:

Monday, February 18, 2013

  Actual Average Record
Temperature  
Mean Temperature 32 °F -  
Max Temperature 37 °F 35 °F 50 °F (1998)
Min Temperature 28 °F 19 °F -14 °F (1950)
Degree Days  
Heating Degree Days 32    
Moisture  
Dew Point 28 °F    
Average Humidity 85    
Maximum Humidity 96    
Minimum Humidity 70    
Precipitation  
Precipitation 0.00 in - - ()
Snow  
Snow 0.00 in - - ()
Snow Depth 3.00 in    
Sea Level Pressure  
Sea Level Pressure 29.65 in    
Wind  
Wind Speed 1 mph (West)    
Max Wind Speed 7 mph    
Max Gust Speed -    
Visibility 10 miles    
Events Snow    
Averages and records for this station are not official NWS values.
T = Trace of Precipitation, MM = Missing Value Source: NWS Daily Summary

Daily Weather History Graph

Daily Weather History Graph

Search for Another Location

Airport or City:

Trip Planner

Search our weather history database for the weather conditions in past years. The results will help you decide how hot, cold, wet, or windy it might be!

Date:

Astronomy

Feb. 18, 2013 Rise Set
Actual Time 8:11 AM AKST 5:40 PM AKST
Civil Twilight 7:27 AM AKST 6:24 PM AKST
Nautical Twilight 6:38 AM AKST 7:14 PM AKST
Astronomical Twilight 5:50 AM AKST 8:02 PM AKST
Moon 10:41 AM AKST (2/18) 3:50 AM AKST (2/18)
Length of Visible Light 10h 56m
Length of Day
9h 28m
First Quarter, 60% of the Moon is Illuminated
Feb 18
First Quarter
Feb 25
Full
Mar 4
Last Quarter
Mar 11
New
Mar 19
First Quarter

Hourly Weather History & Observations

Time (AKST) Temp. Windchill Dew Point Humidity Pressure Visibility Wind Dir Wind Speed Gust Speed Precip Events Conditions
12:53 AM 34.0 °F - 30.0 °F 85% 29.56 in 10.0 mi Calm Calm - N/A   Overcast
1:53 AM 34.0 °F - 30.0 °F 85% 29.57 in 10.0 mi Calm Calm - N/A   Overcast
3:53 AM 30.0 °F - 28.9 °F 96% 29.59 in 10.0 mi Calm Calm - N/A   Overcast
4:53 AM 28.0 °F 24.2 °F 27.0 °F 96% 29.60 in 10.0 mi NNW 3.5 mph - N/A   Partly Cloudy
5:53 AM 28.9 °F - 27.0 °F 92% 29.61 in 10.0 mi Calm Calm - N/A   Overcast
6:53 AM 28.9 °F - 28.0 °F 96% 29.62 in 10.0 mi Calm Calm - N/A   Overcast
7:53 AM 28.0 °F - 27.0 °F 96% 29.62 in 10.0 mi Calm Calm - N/A   Mostly Cloudy
8:53 AM 28.0 °F - 26.1 °F 92% 29.63 in 10.0 mi Calm Calm - N/A   Mostly Cloudy
9:53 AM 30.0 °F - 28.0 °F 92% 29.64 in 10.0 mi Calm Calm - N/A   Mostly Cloudy
10:53 AM 32.0 °F - 30.0 °F 92% 29.65 in 10.0 mi Calm Calm - N/A   Overcast
11:53 AM 34.0 °F - 28.0 °F 79% 29.65 in 10.0 mi Calm Calm - N/A   Overcast
12:26 PM 35.6 °F - 26.6 °F 70% 29.66 in 10.0 mi Calm Calm - N/A   Overcast
12:53 PM 36.0 °F 32.1 °F 28.0 °F 73% 29.66 in 10.0 mi NNW 4.6 mph - N/A   Mostly Cloudy
1:53 PM 37.0 °F - 28.9 °F 73% 29.65 in 10.0 mi Calm Calm - N/A   Overcast
2:53 PM 37.0 °F 31.6 °F 28.9 °F 73% 29.66 in 10.0 mi SW 6.9 mph - N/A   Overcast
3:53 PM 36.0 °F 33.3 °F 30.0 °F 79% 29.66 in 10.0 mi Variable 3.5 mph - N/A   Mostly Cloudy
4:53 PM 35.1 °F - 28.9 °F 78% 29.66 in 10.0 mi Calm Calm - N/A   Mostly Cloudy
5:53 PM 33.1 °F - 28.0 °F 82% 29.65 in 10.0 mi Calm Calm - N/A   Mostly Cloudy
6:53 PM 30.9 °F 27.5 °F 26.1 °F 82% 29.68 in 10.0 mi South 3.5 mph - N/A   Mostly Cloudy
7:53 PM 30.9 °F - 26.1 °F 82% 29.68 in 10.0 mi Calm Calm - N/A   Mostly Cloudy
8:53 PM 30.9 °F - 26.1 °F 82% 29.70 in 10.0 mi Calm Calm - N/A   Mostly Cloudy
9:53 PM 30.0 °F - 26.1 °F 85% 29.71 in 5.0 mi Calm Calm - 0.00 in Snow Light Snow
10:53 PM 30.0 °F - 27.0 °F 88% 29.72 in 10.0 mi Calm Calm - 0.00 in   Overcast
11:53 PM 30.0 °F - 27.0 °F 88% 29.74 in 10.0 mi Calm Calm - N/A   Overcast